Regional Weather Roundup
Issued by NWS Green Bay, WI

Home | Current Version | Previous Version | Text Only | Print | Product List | Glossary On
Versions: 1 2 3 4 5 6 7 8 9 10 11 12 13 14 15 16 17 18 19 20 21 22 23 24 25 26 27 28 29 30 31 32 33 34 35 36 37 38 39 40 41 42 43 44 45 46 47 48 49 50
000
ASUS43 KGRB 222311
RWRGRB

NORTH-CENTRAL AND NORTHEAST WISCONSIN REGIONAL WEATHER ROUNDUP
NATIONAL WEATHER SERVICE GREEN BAY WI
600 PM CDT SAT APR 22 2017

WIZ005-009-010>012-018-019-230000-
NORTH CENTRAL WISCONSIN

CITY           SKY/WX    TMP DP  RH WIND       PRES   REMARKS
IRONWOOD       MOSUNNY   66  29  24 W9        30.05R
MANITOWISH WTR SUNNY     64  30  27 W16G22    30.06S
ARBOR VITAE    SUNNY     64  26  23 W12G20    30.07S
EAGLE RIVER    SUNNY     64  20  19 NW13G23   30.07S
LAND O LAKES   SUNNY     65  21  18 W10G18    30.08S
RHINELANDER    SUNNY     66  28  24 W15G21    30.09F
PHILLIPS       SUNNY     64  32  29 SW12      30.09S
ANTIGO         SUNNY     61  33  34 SW8       30.11S
TOMAHAWK       SUNNY     64  26  24 W9        30.11S
MERRILL        SUNNY     64  31  28 W12       30.11S
$$

WIZ013-073-230000-
NORTHEAST WISCONSIN

CITY           SKY/WX    TMP DP  RH WIND       PRES   REMARKS
IRON MOUNTAIN  SUNNY     67  24  19 W8        30.04S
MARINETTE      SUNNY     61  29  29 SW18      30.08F
OCONTO         SUNNY     64  30  28 S12       30.09S
$$

WIZ017-030-035>037-045-230000-
CENTRAL WISCONSIN

CITY           SKY/WX    TMP DP  RH WIND       PRES   REMARKS
MEDFORD        SUNNY     61  32  33 SW12      30.12S
WAUSAU         SUNNY     62  29  28 W13       30.11S
MOSINEE        MOSUNNY   63  30  29 W12       30.14S
MARSHFIELD     SUNNY     63  28  26 SW9       30.12S
WISC RAPIDS    SUNNY     66  24  20 NW7       30.14S
STEVENS POINT  SUNNY     61  27  27 W6        30.13F
WAUPACA        SUNNY     66  21  17 SW3       30.13S
SHAWANO        SUNNY     67  25  20 W9        30.10S
CLINTONVILLE   SUNNY     64  27  24 W8        30.11S
WAUTOMA        SUNNY     65  27  23 W8        30.13F
$$

WIZ038-039-048-051-230000-
FOX VALLEY

CITY           SKY/WX    TMP DP  RH WIND       PRES   REMARKS
NWS GREEN BAY  SUNNY     63  35  35 S8        30.12F
APPLETON       MOSUNNY   63  21  20 SW7       30.12S
OSHKOSH        SUNNY     61  35  37 SE8       30.13F
FOND DU LAC    SUNNY     62  28  27 S5        30.14F
$$

WIZ022-050-052-230000-
EAST CENTRAL WISCONSIN

CITY           SKY/WX    TMP DP  RH WIND       PRES   REMARKS
EPHRAIM        FAIR      56  30  36 S12       30.10R
WASHINGTON ISL FAIR      49  30  47 S10G18    30.09F
STURGEON BAY   SUNNY     56  32  40 S12       30.12S
MANITOWOC      SUNNY     55  26  32 S8        30.15F
SHEBOYGAN      SUNNY     57  29  34 S9        30.15S
$$

LMZ563-521-522-541>543-230000-
LAKESHORE

STATION/POSITION TIME  TEMP    WIND        PRES    VSBY  WAVE
                       AIR SEA DIR/SP/G                  HT/PER
                 (UTC) (F)     (DEG/KT/KT) (MB)    (MI)  (FT/S)
SHEBOYGAN LKSHOR 2300   47     180/ 10/ 11 1021.0F
KEWAUNEE LKSHORE 2248   46     180/ 13/ 15 1020.1F
NORTHPORT PIER   2240   51     150/  8/ 11 1019.0F
N MID LAKE BUOY  2250   41 37  180/ 10/ 12 1020.7F         1
CHAMBERS ISLAND  2230   60     170/  5/ 13 1018.6S
MENOMINEE LKSHOR 2248   58     170/ 14/ 18 1017.9F
$$




USA.gov is the U.S. government's official web portal to all federal, state and local government web resources and services.